CZ-6A DEB

Satellite information

Favourite Embed

Satellite Type and Status

DEBRISIN ORBIT

Key statistics

Satellite CZ-6A DEB at a glance.

Uptime

1075

Days in orbit

Revolutions

≈ 14.2

Per day

Orbit

SSO

Sun Synchronous Orbit

Inclination

98.8

Latest

Satellite identification and parameters

Extended collection of information and parameters for CZ-6A DEB.

Object identification

Identified? True

Debris? True

Object name: CZ-6A DEB

International designator: 2022-151XF

Object number (NORAD): 55238

Object ID (CCSDS): 55238

Country: PEOPLES REPUBLIC OF CHINA (PRC)

Current information (Y/N): Y

RCS size: SMALL

Orbital parameters

Period: 101.439 minutes

Inclination: 98.7987 deg

SMA: 7204.918 km

Apoapsis: 846.99 km

Periapsis: 806.576 km

RAAN: 308.3873 deg

Eccentricy: 0.00280458

Argument of periapsis: 149.9601 deg

Mean anomaly: 210.3191 deg

Mean motion: 14.19577723 rev/day

Mean motion (dot): 0.00000592 rev/day2

B* drag term: 0.00030032842 1/REarth

Two-line elements (TLE)

Creation date: Oct. 21, 2025, 3:26 a.m.

Reference frame: TEME

Reference center: EARTH

Epoch: Oct. 20, 2025, 7:36 p.m. UTC

TLE line 0: 0 CZ-6A DEB

TLE line 1: 1 55238U 22151XF 25293.81689407 .00000592 00000-0 30033-3 0 9996

TLE line 2: 2 55238 98.7987 308.3873 0028046 149.9601 210.3191 14.19577723152242

Live tracking on map

Real-time ground track for satellite CZ-6A DEB.

In-orbit conjunctions

A list of the most updated potential collisions computed for object CZ-6A DEB.

Target Orbit TCA Probability of collision Miss distance Type
COSMOS 1980 LEO 2025-04-24 22:41:58 0.0002840487 130.0 (m) PAYLOAD
CZ-6A DEB LEO 2025-01-21 23:43:52 0.0002435098 987.0 (m) DEBRIS
FENGYUN 1C DEB SSO 2025-01-08 03:38:24 0.0001505731 161.0 (m) DEBRIS
FENGYUN 1C DEB SSO 2024-12-21 12:15:09 0.0001245014 166.0 (m) DEBRIS
METEOR 1-5 LEO 2024-10-13 17:35:17 0.003690057 59.0 (m) PAYLOAD

Associated space launch

Chinese satellite reported for atmospheric/ocean/environmental/spatial parameter research purposes, details TBD.

CZ-6A DEB was lifted into orbit during the mission ‘Long March 6A | Yunhai 3’, on board a Long March 6A space rocket.

The launch took place on Nov. 11, 2022, 10:52 p.m. from Launch Complex 9A.

For more information about the launch, click the button.

Launch to space Long March 6A | Yunhai 3
Long March 6A | Yunhai 3

Agency: N/A

Status: Launch Successful

Launch date: Nov. 11, 2022, 10:52 p.m. UTC

Rocket: Long March 6A

Launch pad: Launch Complex 9A

Location: Taiyuan Satellite Launch Center, People's Republic of China

...

Latest news about this satellite

There are no fresh news available about this satellite. Check back as we update our databases every day.


Newsletter sign-up

Weekly statistics, charts and insights to help you stay on top of the space industry.